SCP
-0 -0 -0 -0 -0 -0 -0 -0 -0 -0 -0 -0 -0 -0 0 0 0 -0 0 0 -0 -0 -0 -0 -0 -0 -0 0 0 0 0 0 0 0 0 0 0 0 0 0 0 0 0 0 0
-0 -0 -0 -0 -0 -0 0 0 0 0 0 0 -0 -0 -0 -0 -0 0 -0 -0 -0 -0 -0 -0 -0 -0 0 0 0 -0 0 0 0 0 0 0 0 0 0 0 0 0 0 0 0
-0 -0 -0 -0 -0 -0 0 -0 -0 -0 -0 -0 -0 -0 -0 -0 -0 0 -0 -0 -0 -0 -0 -0 -0 -0 -0 -0 0 0 0 0 0 0 0 0 0 0 0 0 0 0 0 0 0
-0 -0 0 0 -0 -0 -0 -0 -0 -0 -0 -0 -0 -0 -0 -0 0 0 -0 -0 -0 -0 -0 -0 -0 -0 -0 0 0 0 0 0 0 0 0 0 0 0 0 0 0 0 0 0 0
-0 -0 0 -0 -0 -0 -0 -0 -0 -0 -0 -0 -0 -0 -0 -0 0 0 0 0 0 -0 -0 -0 -0 -0 0 0 0 -0 0 0 -0 0 -0 0 0 0 0 0 0 0 0 0 0
-0 -0 -0 -0 -0 -0 0 0 0 0 -0 -0 -0 -0 0 0 0 0 0 0 0 -0 -0 -0 0 0 -0 0 -0 0 0 0 -0 -0 0 0 -0 0 0 0 0 0 0 0 0
-0 0 0 -0 -0 0 0 0 0 0 -0 -0 -0 -0 -0 0 0 0 0 0 0 0 -0 -0 0 0 0 -0 0 0 -0 -0 -0 0 0 -0 -0 -0 -0 -0 0 0 0 0 0
0 0 0 -0 -0 0 0 -0 -0 0 -0 -0 -0 0 0 0 0 0 0 0 0 0 0 0 0 0 0 0 0 -0 -0 -0 0 0 0 0 0 0 0 0 0 0 0 0 0
-0 -0 0 -0 -0 -0 -0 -0 -0 0 0 0 0 0 0 0 0 0 0 0 0 0 0 0 0 0 0 0 0 0 0 0 0 0 0 0 0 0 0 0 0 0 0 0 0
-0 -0 0 -0 -0 -0 -0 -0 0 0 0 0 0 0 0 0 0 0 0 0 0 0 0 0 0 0 0 0 0 0 0 0 0 0 0 0 0 0 0 0 0 0 0 0 0
-0 -0 0 0 -0 -0 -0 0 0 0 0 -0 0 0 0 0 0 0 0 0 0 -0 0 0 0 0 0 0 0 0 0 0 0 0 0 0 0 0 0 0 0 0 0 0 0
-0 -0 0 -0 -0 0 0 0 -0 0 0 0 0 0 0 0 0 0 0 0 0 0 0 0 0 0 0 0 0 0 0 0 0 0 0 0 0 0 0 0 0 0 0 0 0
-0 -0 0 -0 -0 -0 0 0 -0 0 0 0 0 0 0 0 0 0 0 0 0 0 0 0 0 0 0 0 0 0 0 0 0 0 0 0 0 0 0 0 0 0 0 0 0
-0 0 0 -0 -0 0 0 0 0 0 0 0 0 0 0 0 0 0 0 0 0 0 0 0 0 0 0 0 0 0 0 0 0 0 0 0 0 -0 0 0 0 0 0 0 0
-0 0 0 -0 -0 0 0 0 0 0 0 0 0 0 0 0 0 0 0 0 0 0 0 0 0 0 0 0 0 0 0 0 0 0 0 -0 0 0 -0 0 0 0 0 0 0
-0 0 -0 0 0 0 0 0 0 0 0 0 0 0 0 0 0 0 0 0 0 0 0 0 0 0 0 0 0 0 0 0 0 0 0 -0 0 0 0 -0 0 0 0 0 0
0 -0 -0 -0 -0 -0 0 0 0 0 0 0 0 0 0 0 0 0 0 0 0 0 0 0 0 0 0 0 0 0 0 0 0 0 -0 0 -0 0 0 0 0 0 0 0 0
0 -0 0 0 -0 0 0 0 -0 0 0 0 0 0 0 0 0 0 0 0 0 0 0 0 0 0 0 0 0 0 0 0 0 -0 -0 -0 0 0 0 0 0 0 0 0 0
-0 0 0 0 0 0 0 -0 0 0 0 0 0 0 0 0 0 0 0 0 0 0 0 0 0 0 0 0 0 0 0 0 0 -0 0 -0 -0 -0 0 0 0 0 0 0 0
0 0 0 0 0 0 0 0 0 0 0 0 0 0 0 0 0 0 0 0 0 0 0 0 0 0 0 0 0 0 -0 0 0 0 0 -0 -0 0 0 0 -0 0 0 0 0
0 -0 0 0 0 0 0 0 0 0 0 0 0 0 0 0 0 0 0 0 0 0 0 0 1 0 0 0 -0 0 0 0 0 -0 0 -0 0 0 0 0 0 0 0 -0 0
0 0 0 0 -0 0 0 0 0 0 0 0 0 0 0 0 0 0 0 0 0 0 0 0 0 0 0 -0 -0 0 0 0 -0 -0 -0 -0 -0 -0 0 0 0 0 0 0 0
0 0 0 0 0 0 0 0 0 0 0 0 0 0 0 0 0 0 0 0 0 0 0 0 0 0 0 0 0 0 -0 -0 -0 -0 0 -0 -0 -0 -0 -0 0 0 0 0 0
0 0 0 0 0 0 0 0 0 0 0 0 0 0 0 0 0 0 0 0 0 0 0 0 0 0 0 0 -0 -0 -0 -0 -0 0 0 0 -0 -0 0 0 0 0 0 0 0
0 0 0 0 0 0 0 0 0 0 0 0 0 0 0 0 0 0 0 0 0 0 0 0 0 0 0 0 0 -0 -0 -0 0 -0 -0 -0 -0 -0 0 -0 -0 -0 0 0 0
0 0 0 0 0 0 0 0 0 0 0 0 0 0 0 0 0 0 0 0 0 0 0 0 0 0 0 0 0 -0 -0 0 0 0 0 0 0 0 0 0 0 0 0 0 0
0 0 0 0 0 0 0 0 0 0 0 0 0 0 0 0 0 0 0 0 0 0 0 0 0 0 0 -0 -0 0 0 0 0 0 0 0 0 -0 0 0 0 0 0 0 0
Wind_Speed_500mb
33 29 27 21 17 15 15 16 17 18 16 11 15 25 26 30 27 20 19 15 16 24 18 6 6 5 2 2 7 13 18 25 29 24 17 26 11 24 31 37 32 41 47 45 37
37 26 25 20 16 15 14 18 21 19 18 12 20 27 27 21 21 21 17 19 20 25 18 11 8 6 5 5 5 17 21 23 24 22 24 35 38 37 36 42 45 45 43 45 45
39 25 19 18 17 17 14 17 21 18 16 17 20 24 21 10 8 18 17 17 13 20 15 12 6 9 7 10 11 13 22 29 26 22 28 38 41 44 44 42 46 43 44 36 34
39 26 17 16 17 18 18 18 17 14 14 18 20 20 16 2 5 2 7 13 16 24 12 13 15 9 9 12 10 19 10 20 27 29 34 36 48 51 52 54 52 51 49 45 43
38 26 14 12 15 17 19 20 12 9 13 21 29 25 12 16 21 8 10 8 14 13 13 17 15 19 17 13 22 26 21 29 38 41 44 43 44 44 53 52 51 54 56 57 51
37 25 14 11 14 18 22 18 7 10 16 23 23 11 1 19 6 2 6 10 11 13 15 14 17 20 25 23 26 28 35 44 49 46 43 33 39 45 55 52 50 48 53 58 57
34 23 16 13 14 20 22 12 12 18 22 26 21 12 18 12 2 7 13 15 16 16 20 20 19 21 31 33 22 37 44 41 46 45 17 38 43 45 56 51 40 47 42 46 52
31 23 18 16 16 21 16 11 17 24 29 25 14 9 10 6 4 10 15 18 16 20 24 26 26 33 37 37 38 44 42 35 30 21 33 40 49 41 54 57 52 47 52 55 57
27 21 17 17 19 20 12 13 16 20 19 10 7 10 12 9 8 15 15 18 20 21 23 22 27 34 32 31 30 36 33 47 53 45 46 43 57 53 65 65 61 61 56 57 55
27 17 16 19 22 23 14 16 14 14 6 3 8 15 4 11 15 16 15 20 23 26 31 28 35 27 32 28 31 46 44 43 49 47 48 54 59 52 65 68 68 67 70 71 72
23 16 16 18 22 27 16 2 7 9 18 16 8 7 3 14 14 10 16 25 15 30 28 22 23 29 31 27 34 37 42 51 53 49 45 48 54 55 55 66 65 66 69 73 74
17 15 9 18 18 24 22 5 8 9 17 12 9 9 9 12 21 13 14 26 32 29 33 26 32 20 23 32 35 41 49 52 50 39 39 49 61 56 53 55 68 69 72 72 72
8 12 13 8 16 16 12 10 10 7 15 19 14 14 10 15 25 17 18 27 34 29 28 32 42 14 27 34 39 41 44 42 49 52 49 50 58 47 49 47 39 58 54 58 70
4 6 13 9 8 9 4 20 12 8 11 19 13 6 11 22 15 21 15 23 27 37 32 23 21 22 37 39 34 40 42 46 49 47 43 49 45 50 43 39 32 39 52 54 55
12 8 8 11 6 10 15 18 4 5 10 7 10 2 14 20 23 2 9 22 33 38 27 40 40 37 35 35 31 45 38 49 55 50 49 55 32 28 33 30 24 37 14 21 37
16 8 7 11 5 13 17 13 4 14 2 10 3 12 22 29 26 15 30 31 43 24 29 42 30 42 27 29 36 43 50 49 49 45 34 48 15 21 26 5 22 19 11 7 29
21 9 6 3 11 19 16 9 14 10 6 4 15 27 31 35 20 18 24 30 24 25 30 38 41 15 2 28 42 41 41 25 29 13 26 28 32 33 25 22 24 22 24 30 10
17 8 6 5 16 18 13 18 20 10 20 22 25 38 38 11 21 17 32 28 27 16 25 32 34 32 30 42 47 34 31 17 24 30 40 51 40 18 2 19 13 9 18 24 12
15 7 3 14 17 14 19 15 16 21 13 22 32 29 19 7 22 31 26 29 8 20 17 26 21 56 47 47 21 45 31 31 20 39 35 37 32 24 20 27 25 20 11 14 10
13 5 5 18 17 7 16 4 8 2 17 21 28 17 29 34 28 25 24 11 14 14 11 21 48 27 38 31 43 41 32 16 14 13 28 33 41 13 18 12 26 6 23 4 6
16 13 5 26 6 22 12 13 18 11 13 15 25 34 33 34 28 28 17 21 5 16 27 37 9 35 42 42 48 33 21 3 7 19 12 28 17 23 42 29 36 39 12 62 13
11 11 16 16 21 2 10 12 13 17 17 23 19 25 24 27 30 27 31 23 20 25 31 12 15 32 50 50 51 32 24 21 10 20 27 29 40 42 17 42 38 41 47 44 40
23 11 12 13 9 14 12 19 9 19 19 13 21 23 23 29 17 18 22 19 15 12 6 11 6 20 27 23 22 34 37 46 44 37 42 32 32 36 43 41 42 47 56 66 58
18 7 5 8 4 15 20 16 16 8 21 21 24 34 29 26 26 24 34 23 17 30 33 26 17 25 27 46 44 50 51 50 42 11 40 41 56 48 41 44 49 66 73 70 61
14 10 6 10 13 24 20 24 22 22 9 25 18 17 27 25 35 41 30 42 49 31 6 6 19 36 43 48 50 56 58 54 46 40 20 37 48 49 48 53 57 67 68 62 63
18 15 19 36 18 22 13 14 22 19 24 27 29 29 27 35 40 53 46 40 38 30 8 10 13 36 48 47 45 50 51 49 24 32 36 39 58 56 55 75 63 66 67 65 63
22 15 20 23 18 20 15 19 27 35 18 19 24 34 39 38 45 55 61 65 52 47 41 35 31 27 40 42 48 33 27 22 30 29 21 33 61 54 53 45 56 73 81 78 83
Wind_Direction_500mb
24 30 33 39 44 43 40 37 20 16 18 31 130 123 105 86 73 50 53 69 79 60 28 25 8 331 317 267 275 266 255 259 270 269 292 284 295 270 289 276 268 266 264 270 283
18 24 32 39 47 47 52 41 21 19 21 53 139 135 115 103 86 62 80 76 80 61 34 25 346 297 236 264 260 266 282 298 15 338 312 299 294 292 287 281 273 270 257 264 266
14 16 27 38 44 47 44 21 15 21 38 86 129 151 128 113 113 63 92 70 63 48 22 6 338 298 276 288 355 324 281 347 315 306 303 295 285 282 278 273 274 273 279 267 269
8 8 15 36 43 42 29 16 12 32 65 97 107 124 132 180 57 90 83 89 64 34 1 357 4 306 300 329 342 293 254 288 299 298 287 277 283 281 278 278 278 274 274 270 267
5 5 13 32 37 26 11 7 20 67 95 107 115 129 123 93 83 95 99 52 6 9 359 346 346 335 329 320 310 255 290 296 288 289 279 282 276 278 279 281 277 270 262 261 259
7 10 23 41 33 18 8 12 54 93 113 122 120 102 308 87 88 48 338 314 322 326 329 331 333 330 280 308 289 304 293 292 283 276 278 281 271 281 283 276 272 271 262 257 256
17 27 48 59 34 15 6 26 99 112 119 127 124 83 61 73 140 337 319 305 294 295 301 308 302 299 306 294 298 297 289 280 276 267 259 264 262 273 276 269 265 269 263 256 253
24 37 48 59 33 11 15 80 119 125 126 125 111 57 71 35 291 336 334 313 284 290 287 294 288 285 280 282 280 273 267 271 275 281 275 290 280 274 274 281 275 252 260 260 255
24 34 55 47 27 17 57 105 129 147 144 142 7 298 100 341 353 333 331 324 313 294 285 286 286 277 288 266 266 261 298 311 304 302 303 290 286 285 284 280 268 264 261 258 257
24 36 60 46 41 33 91 103 107 167 193 227 267 252 135 339 326 312 320 318 310 305 293 232 261 276 258 272 312 316 302 299 295 299 299 287 283 286 284 279 270 265 260 258 255
27 44 63 54 50 50 92 61 224 202 215 297 19 332 360 333 302 298 317 320 312 297 276 312 290 273 333 323 303 297 289 290 290 296 302 292 295 291 289 282 277 266 261 258 254
29 40 51 48 45 56 40 15 2 322 281 224 247 269 288 313 303 299 310 311 316 302 302 287 284 349 323 309 294 289 288 288 300 301 315 296 285 287 281 271 260 259 260 258 253
18 30 21 344 25 31 39 11 316 295 254 168 224 265 277 297 312 301 317 315 314 302 313 303 290 348 296 295 299 298 300 309 310 310 290 281 282 295 305 294 274 275 257 253 252
298 360 23 20 25 359 1 344 319 247 265 135 199 181 245 309 276 298 285 320 295 307 322 294 276 290 311 306 316 306 319 313 301 303 296 302 291 287 278 272 252 245 251 254 243
337 270 351 9 352 357 320 334 299 226 271 117 132 288 266 280 314 202 283 281 292 300 296 287 302 310 302 304 332 303 304 300 289 283 289 282 274 292 307 4 339 334 305 272 256
333 270 297 342 7 339 327 310 287 233 122 158 267 252 285 311 306 280 298 305 293 291 272 277 284 282 303 320 297 295 291 291 297 282 270 274 314 286 320 310 242 260 235 259 285
332 248 247 302 309 325 322 284 255 276 133 31 320 313 312 300 314 303 316 313 301 314 303 315 293 328 356 283 297 320 313 308 299 277 281 285 312 307 348 313 310 306 307 302 284
351 230 278 288 313 312 318 264 267 23 337 354 311 307 283 8 304 282 302 300 312 307 298 295 310 316 345 316 303 311 309 305 292 299 308 308 284 287 21 37 355 307 306 261 265
11 347 277 288 313 301 276 261 357 353 356 317 309 288 317 315 301 315 306 306 337 335 303 319 284 320 300 297 297 288 277 284 279 283 273 272 272 288 33 10 330 354 357 3 234
356 274 265 323 306 280 255 270 292 312 308 301 297 297 311 320 308 311 317 319 311 334 14 299 305 293 292 315 290 286 302 295 274 282 300 297 319 33 31 261 257 38 313 281 269
27 272 337 334 278 247 289 345 323 346 318 305 303 306 303 308 309 303 282 302 40 314 327 307 255 286 301 295 311 309 260 241 299 285 285 292 274 357 328 359 358 341 73 302 240
352 288 344 347 258 267 328 357 343 297 302 278 285 284 300 325 301 290 287 282 16 332 317 12 298 296 298 293 283 267 300 314 296 302 293 294 282 285 303 329 328 312 303 313 307
328 301 331 335 334 338 345 299 248 297 304 301 296 300 315 300 304 283 290 308 320 334 318 356 268 303 298 304 339 324 300 310 302 295 277 276 282 299 305 308 305 306 302 299 290
328 315 10 353 102 331 337 305 304 300 294 281 286 297 283 289 294 279 290 291 287 286 311 299 247 257 278 293 310 308 295 282 273 254 279 274 290 302 298 310 317 314 298 290 282
357 34 9 316 327 325 297 299 295 307 256 308 285 283 314 309 299 283 293 309 304 307 271 243 275 286 290 294 294 286 285 288 294 297 301 307 301 299 302 305 312 295 291 291 286
353 345 327 289 291 290 274 276 309 308 321 295 289 297 309 296 291 295 300 298 299 287 261 223 259 281 289 285 287 293 300 300 297 316 298 295 292 292 307 309 304 297 296 285 281
357 332 301 289 276 292 330 325 312 311 307 288 298 304 297 300 296 295 290 283 277 279 272 267 273 290 284 299 305 297 349 316 300 299 294 286 291 304 306 305 307 301 286 280 278
Wind_Speed_850mb
33 29 27 21 17 15 15 16 17 18 16 11 15 25 26 30 27 20 19 15 16 24 18 6 6 5 2 2 7 13 18 25 29 24 17 26 11 24 31 37 32 41 47 45 37
37 26 25 20 16 15 14 18 21 19 18 12 20 27 27 21 21 21 17 19 20 25 18 11 8 6 5 5 5 17 21 23 24 22 24 35 38 37 36 42 45 45 43 45 45
39 25 19 18 17 17 14 17 21 18 16 17 20 24 21 10 8 18 17 17 13 20 15 12 6 9 7 10 11 13 22 29 26 22 28 38 41 44 44 42 46 43 44 36 34
39 26 17 16 17 18 18 18 17 14 14 18 20 20 16 2 5 2 7 13 16 24 12 13 15 9 9 12 10 19 10 20 27 29 34 36 48 51 52 54 52 51 49 45 43
38 26 14 12 15 17 19 20 12 9 13 21 29 25 12 16 21 8 10 8 14 13 13 17 15 19 17 13 22 26 21 29 38 41 44 43 44 44 53 52 51 54 56 57 51
37 25 14 11 14 18 22 18 7 10 16 23 23 11 1 19 6 2 6 10 11 13 15 14 17 20 25 23 26 28 35 44 49 46 43 33 39 45 55 52 50 48 53 58 57
34 23 16 13 14 20 22 12 12 18 22 26 21 12 18 12 2 7 13 15 16 16 20 20 19 21 31 33 22 37 44 41 46 45 17 38 43 45 56 51 40 47 42 46 52
31 23 18 16 16 21 16 11 17 24 29 25 14 9 10 6 4 10 15 18 16 20 24 26 26 33 37 37 38 44 42 35 30 21 33 40 49 41 54 57 52 47 52 55 57
27 21 17 17 19 20 12 13 16 20 19 10 7 10 12 9 8 15 15 18 20 21 23 22 27 34 32 31 30 36 33 47 53 45 46 43 57 53 65 65 61 61 56 57 55
27 17 16 19 22 23 14 16 14 14 6 3 8 15 4 11 15 16 15 20 23 26 31 28 35 27 32 28 31 46 44 43 49 47 48 54 59 52 65 68 68 67 70 71 72
23 16 16 18 22 27 16 2 7 9 18 16 8 7 3 14 14 10 16 25 15 30 28 22 23 29 31 27 34 37 42 51 53 49 45 48 54 55 55 66 65 66 69 73 74
17 15 9 18 18 24 22 5 8 9 17 12 9 9 9 12 21 13 14 26 32 29 33 26 32 20 23 32 35 41 49 52 50 39 39 49 61 56 53 55 68 69 72 72 72
8 12 13 8 16 16 12 10 10 7 15 19 14 14 10 15 25 17 18 27 34 29 28 32 42 14 27 34 39 41 44 42 49 52 49 50 58 47 49 47 39 58 54 58 70
4 6 13 9 8 9 4 20 12 8 11 19 13 6 11 22 15 21 15 23 27 37 32 23 21 22 37 39 34 40 42 46 49 47 43 49 45 50 43 39 32 39 52 54 55
12 8 8 11 6 10 15 18 4 5 10 7 10 2 14 20 23 2 9 22 33 38 27 40 40 37 35 35 31 45 38 49 55 50 49 55 32 28 33 30 24 37 14 21 37
16 8 7 11 5 13 17 13 4 14 2 10 3 12 22 29 26 15 30 31 43 24 29 42 30 42 27 29 36 43 50 49 49 45 34 48 15 21 26 5 22 19 11 7 29
21 9 6 3 11 19 16 9 14 10 6 4 15 27 31 35 20 18 24 30 24 25 30 38 41 15 2 28 42 41 41 25 29 13 26 28 32 33 25 22 24 22 24 30 10
17 8 6 5 16 18 13 18 20 10 20 22 25 38 38 11 21 17 32 28 27 16 25 32 34 32 30 42 47 34 31 17 24 30 40 51 40 18 2 19 13 9 18 24 12
15 7 3 14 17 14 19 15 16 21 13 22 32 29 19 7 22 31 26 29 8 20 17 26 21 56 47 47 21 45 31 31 20 39 35 37 32 24 20 27 25 20 11 14 10
13 5 5 18 17 7 16 4 8 2 17 21 28 17 29 34 28 25 24 11 14 14 11 21 48 27 38 31 43 41 32 16 14 13 28 33 41 13 18 12 26 6 23 4 6
16 13 5 26 6 22 12 13 18 11 13 15 25 34 33 34 28 28 17 21 5 16 27 37 9 35 42 42 48 33 21 3 7 19 12 28 17 23 42 29 36 39 12 62 13
11 11 16 16 21 2 10 12 13 17 17 23 19 25 24 27 30 27 31 23 20 25 31 12 15 32 50 50 51 32 24 21 10 20 27 29 40 42 17 42 38 41 47 44 40
23 11 12 13 9 14 12 19 9 19 19 13 21 23 23 29 17 18 22 19 15 12 6 11 6 20 27 23 22 34 37 46 44 37 42 32 32 36 43 41 42 47 56 66 58
18 7 5 8 4 15 20 16 16 8 21 21 24 34 29 26 26 24 34 23 17 30 33 26 17 25 27 46 44 50 51 50 42 11 40 41 56 48 41 44 49 66 73 70 61
14 10 6 10 13 24 20 24 22 22 9 25 18 17 27 25 35 41 30 42 49 31 6 6 19 36 43 48 50 56 58 54 46 40 20 37 48 49 48 53 57 67 68 62 63
18 15 19 36 18 22 13 14 22 19 24 27 29 29 27 35 40 53 46 40 38 30 8 10 13 36 48 47 45 50 51 49 24 32 36 39 58 56 55 75 63 66 67 65 63
22 15 20 23 18 20 15 19 27 35 18 19 24 34 39 38 45 55 61 65 52 47 41 35 31 27 40 42 48 33 27 22 30 29 21 33 61 54 53 45 56 73 81 78 83
Wind_Direction_850mb
24 30 33 39 44 43 40 37 20 16 18 31 130 123 105 86 73 50 53 69 79 60 28 25 8 331 317 267 275 266 255 259 270 269 292 284 295 270 289 276 268 266 264 270 283
18 24 32 39 47 47 52 41 21 19 21 53 139 135 115 103 86 62 80 76 80 61 34 25 346 297 236 264 260 266 282 298 15 338 312 299 294 292 287 281 273 270 257 264 266
14 16 27 38 44 47 44 21 15 21 38 86 129 151 128 113 113 63 92 70 63 48 22 6 338 298 276 288 355 324 281 347 315 306 303 295 285 282 278 273 274 273 279 267 269
8 8 15 36 43 42 29 16 12 32 65 97 107 124 132 180 57 90 83 89 64 34 1 357 4 306 300 329 342 293 254 288 299 298 287 277 283 281 278 278 278 274 274 270 267
5 5 13 32 37 26 11 7 20 67 95 107 115 129 123 93 83 95 99 52 6 9 359 346 346 335 329 320 310 255 290 296 288 289 279 282 276 278 279 281 277 270 262 261 259
7 10 23 41 33 18 8 12 54 93 113 122 120 102 308 87 88 48 338 314 322 326 329 331 333 330 280 308 289 304 293 292 283 276 278 281 271 281 283 276 272 271 262 257 256
17 27 48 59 34 15 6 26 99 112 119 127 124 83 61 73 140 337 319 305 294 295 301 308 302 299 306 294 298 297 289 280 276 267 259 264 262 273 276 269 265 269 263 256 253
24 37 48 59 33 11 15 80 119 125 126 125 111 57 71 35 291 336 334 313 284 290 287 294 288 285 280 282 280 273 267 271 275 281 275 290 280 274 274 281 275 252 260 260 255
24 34 55 47 27 17 57 105 129 147 144 142 7 298 100 341 353 333 331 324 313 294 285 286 286 277 288 266 266 261 298 311 304 302 303 290 286 285 284 280 268 264 261 258 257
24 36 60 46 41 33 91 103 107 167 193 227 267 252 135 339 326 312 320 318 310 305 293 232 261 276 258 272 312 316 302 299 295 299 299 287 283 286 284 279 270 265 260 258 255
27 44 63 54 50 50 92 61 224 202 215 297 19 332 360 333 302 298 317 320 312 297 276 312 290 273 333 323 303 297 289 290 290 296 302 292 295 291 289 282 277 266 261 258 254
29 40 51 48 45 56 40 15 2 322 281 224 247 269 288 313 303 299 310 311 316 302 302 287 284 349 323 309 294 289 288 288 300 301 315 296 285 287 281 271 260 259 260 258 253
18 30 21 344 25 31 39 11 316 295 254 168 224 265 277 297 312 301 317 315 314 302 313 303 290 348 296 295 299 298 300 309 310 310 290 281 282 295 305 294 274 275 257 253 252
298 360 23 20 25 359 1 344 319 247 265 135 199 181 245 309 276 298 285 320 295 307 322 294 276 290 311 306 316 306 319 313 301 303 296 302 291 287 278 272 252 245 251 254 243
337 270 351 9 352 357 320 334 299 226 271 117 132 288 266 280 314 202 283 281 292 300 296 287 302 310 302 304 332 303 304 300 289 283 289 282 274 292 307 4 339 334 305 272 256
333 270 297 342 7 339 327 310 287 233 122 158 267 252 285 311 306 280 298 305 293 291 272 277 284 282 303 320 297 295 291 291 297 282 270 274 314 286 320 310 242 260 235 259 285
332 248 247 302 309 325 322 284 255 276 133 31 320 313 312 300 314 303 316 313 301 314 303 315 293 328 356 283 297 320 313 308 299 277 281 285 312 307 348 313 310 306 307 302 284
351 230 278 288 313 312 318 264 267 23 337 354 311 307 283 8 304 282 302 300 312 307 298 295 310 316 345 316 303 311 309 305 292 299 308 308 284 287 21 37 355 307 306 261 265
11 347 277 288 313 301 276 261 357 353 356 317 309 288 317 315 301 315 306 306 337 335 303 319 284 320 300 297 297 288 277 284 279 283 273 272 272 288 33 10 330 354 357 3 234
356 274 265 323 306 280 255 270 292 312 308 301 297 297 311 320 308 311 317 319 311 334 14 299 305 293 292 315 290 286 302 295 274 282 300 297 319 33 31 261 257 38 313 281 269
27 272 337 334 278 247 289 345 323 346 318 305 303 306 303 308 309 303 282 302 40 314 327 307 255 286 301 295 311 309 260 241 299 285 285 292 274 357 328 359 358 341 73 302 240
352 288 344 347 258 267 328 357 343 297 302 278 285 284 300 325 301 290 287 282 16 332 317 12 298 296 298 293 283 267 300 314 296 302 293 294 282 285 303 329 328 312 303 313 307
328 301 331 335 334 338 345 299 248 297 304 301 296 300 315 300 304 283 290 308 320 334 318 356 268 303 298 304 339 324 300 310 302 295 277 276 282 299 305 308 305 306 302 299 290
328 315 10 353 102 331 337 305 304 300 294 281 286 297 283 289 294 279 290 291 287 286 311 299 247 257 278 293 310 308 295 282 273 254 279 274 290 302 298 310 317 314 298 290 282
357 34 9 316 327 325 297 299 295 307 256 308 285 283 314 309 299 283 293 309 304 307 271 243 275 286 290 294 294 286 285 288 294 297 301 307 301 299 302 305 312 295 291 291 286
353 345 327 289 291 290 274 276 309 308 321 295 289 297 309 296 291 295 300 298 299 287 261 223 259 281 289 285 287 293 300 300 297 316 298 295 292 292 307 309 304 297 296 285 281
357 332 301 289 276 292 330 325 312 311 307 288 298 304 297 300 296 295 290 283 277 279 272 267 273 290 284 299 305 297 349 316 300 299 294 286 291 304 306 305 307 301 286 280 278